Regional Weather Roundup
Issued by NWS

Home | Current Version | Previous Version | Text Only | Print | Product List | Glossary On
Versions: 1 2 3 4 5 6 7 8 9 10 11 12 13 14 15 16 17 18 19 20 21 22 23 24 25 26 27 28 29 30 31 32 33 34 35 36 37 38 39 40 41 42 43 44 45 46 47 48 49 50
000
ASUS43 KIND 191609
RWRIN

WEATHER ROUNDUP FOR INDIANA
NATIONAL WEATHER SERVICE INDIANAPOLIS IN
1100 AM EST FRI JAN 19 2018

NOTE: "FAIR" INDICATES FEW OR NO CLOUDS BELOW 12,000 FEET WITH NO
SIGNIFICANT WEATHER AND/OR OBSTRUCTIONS TO VISIBILITY.

* - STATION DOES NOT REPORT WEATHER SUCH AS PRECIPITATION OR FOG.

+ - STATION NOT QUALITY CONTROLLED BY THE NATIONAL WEATHER SERVICE.
    USE DATA WITH CAUTION...ESPECIALLY DEWPOINT AND RELATIVE
    HUMIDITY OBSERVATIONS.

INZ001>003-010>013-019-020-191700-
NORTHWEST INDIANA

CITY           SKY/WX    TMP DP  RH WIND       PRES   REMARKS
GARY /AIRPORT/ PTSUNNY   32  16  51 SW14G26   29.94F WCI  22
KNOX *+        FAIR      28  19  69 SW16      29.98F WCI  17
LA PORTE +     FAIR      28  18  65 SW13G20   29.96S WCI  17
MICHIGAN CITY+ FAIR      32  19  59 S13       29.95F WCI  22
MONTICELLO +   FAIR      29  17  60 SW16      30.02F WCI  17
RENSSELAER +   FAIR      30  18  59 SW20G26   30.00S WCI  18
VALPARAISO     FAIR      30  19  63 SW13      29.96F WCI  20

$$

LMZ046-743>745-191700-
SOUTHERN LAKE MICHIGAN

STATION/POSITION TIME  TEMP    WIND        PRES    WAVE
                       AIR SEA DIR/SP/G            HT
                 (UTC) (F)     (DEG/KT/KT) (MB)    (FT)
BURNS HARBOR     1540   31     200/ 17/ 21 1014.2F
MICHIGAN CITY    1540   31     180/ 16/ 19   N/A

$$

INZ004-005-014>016-021>024-191700-
NORTH CENTRAL INDIANA

CITY           SKY/WX    TMP DP  RH WIND       PRES   REMARKS
ELKHART        FAIR      30  18  59 SW9       29.97  WCI  22
GOSHEN         FAIR      27  17  66 SW16G26   29.97F WCI  15
LOGANSPORT +   FAIR      28  18  64 SW16      30.05S WCI  17
PERU/GRISSOM   FAIR      29  19  66 SW16      30.03R WCI  17
ROCHESTER +    FAIR      32  19  59 SW12G18   30.01F WCI  23
SOUTH BEND     FAIR      28  17  63 SW17      29.96S WCI  16
WARSAW +       FAIR      30  18  59 SW7G20    29.99S WCI  23

$$

INZ006>009-017-018-025>027-191700-
NORTHEAST INDIANA

CITY           SKY/WX    TMP DP  RH WIND       PRES   REMARKS
AUBURN +       FAIR      32  18  55 SW10G18   30.00S WCI  24
FORT WAYNE     FAIR      28  18  66 SW18      30.03R WCI  15
HUNTINGTON +   FAIR      28  15  56 SW15      30.02F WCI  17
KENDALLVILLE + FAIR      29  18  62 SW15      29.98R WCI  18

$$

INZ028-029-035-036-043>045-051>053-191700-
WEST CENTRAL INDIANA

CITY           SKY/WX    TMP DP  RH WIND       PRES   REMARKS
CRAWFORDSVL +  FAIR      26  17  69 MISG        N/A
GREENCASTLE +  FAIR      30  14  51 SW7       30.10R WCI  23
LAFAYETTE      FAIR      29  17  61 SW13G21   30.05R WCI  19
TERRE HAUTE    FAIR      28  16  60 SW12      30.12S WCI  18

$$

INZ030>032-037>040-046>048-054>057-064-065-191700-
CENTRAL INDIANA

CITY           SKY/WX    TMP DP  RH WIND       PRES   REMARKS
COLUMBUS       SUNNY     27  12  54 S15       30.15F WCI  15
FISHERS *+     FAIR      30  19  64 SW12      30.09  WCI  21
FRANKFORT +    FAIR      31  20  64 SW16      30.08R WCI  20
GREENWOOD *+   FAIR      30  16  57 SW12      30.10F WCI  20
INDIANAPOLIS   FAIR      29  16  58 S12       30.10S WCI  19
-EAGLE CREEK   FAIR      29  16  58 SW10      30.08S WCI  20
MARION +       FAIR      26  18  70 SW12      30.06S WCI  16
MT COMFORT *+  FAIR      28  19  69 S15       30.09S WCI  17
SHELBYVILLE    FAIR      26  15  63 S14       30.11F WCI  14
ZIONSVILLE +   FAIR      28  15  58 SW15      30.07R WCI  16

$$

INZ033-034-041-042-049-050-058-059-191700-
EAST CENTRAL INDIANA

CITY           SKY/WX    TMP DP  RH WIND       PRES   REMARKS
MUNCIE         FAIR      30  14  51 SW14G26   30.06R WCI  19
RICHMOND +     FAIR      28  18  64 SW15      30.09F WCI  17

$$

INZ060-061-067>069-081>083-085>088-191700-
SOUTHWEST INDIANA

CITY           SKY/WX    TMP DP  RH WIND       PRES   REMARKS
EVANSVILLE     FAIR      27  18  69 S14       30.22S WCI  16
HUNTINGBURG +  FAIR      29  18  63 S13       30.21S WCI  19
WASHINGTON +   FAIR      28  15  56 S12       30.17F WCI  18

$$

INZ062-063-066-070>080-084-089>092-191700-
SOUTH CENTRAL AND SOUTHEAST INDIANA

CITY           SKY/WX    TMP DP  RH WIND       PRES   REMARKS
BATESVILLE *+    N/A    N/A N/A N/A MISG        N/A
BLOOMINGTON    FAIR      29  15  56 SW12      30.12F WCI  19
FRENCH LICK *+ FAIR      30  12  47 SW7       30.18S WCI  23
MADISON *+     FAIR      30  18  59 S9        30.21R WCI  22
NORTH VERNON + FAIR      27  14  59 S10       30.17R WCI  17
SEYMOUR +      FAIR      30  16  55 S9        30.18R WCI  22

$$





USA.gov is the U.S. government's official web portal to all federal, state and local government web resources and services.